"Pseudo-MPEC" for P10LfOw

Created 2019 Jan 23 11:18:18 UT using Find_Orb

Click here for an explanation of pseudo-MPECs

 
 Astrometry: 
     P10LfOw  C2019 01 099*s]yJC/_62RNhGWwTo3.=$,_A@5A-047*KjTHAstrometryTm_fF51
     P10LfOw  C2019 01 09:?/1xop?5+:BO3$TIXHbDmOS:N9nh2#redacted;S0sIOb.D+JsJF51
     P10LfOw  C2019 01 09l-Nv`BJclickS78e:kvgn%PI5'vS+$*dT8E!Etw_pG8-9$^TCRYsF51
     P10LfOw  C2019 01 09u7_F8_G83DQ)kjk^HmBjN[\hererL,vGCv`iiy6[242Ya=$._x3JF51
     P10LfOw KC2019 01 10p7a9kRt#ffor`sF=ZcAh#HAj]:,ZD'Tuy$g`=Xlk[YQ/Yniv62y8H21
     P10LfOw KC2019 01 10K]w%Xv)y7FW)kmBu7EL'W%sdI)UbEEC_WshW0hhnY5d!7`l7fMHkH21
     P10LfOw KC2019 01 10uHr-YEOjV=Y$Pnh+`(RQn%y:LfU!.2P0hexplanationHqGnFl$=H21

Station data:
(F51) Pan-STARRS 1, Haleakala  (N20.707235 W156.255910)  US/Hawaii.
   Observers N. Primak, A. Schultz, S. Watters, J. Thiel, T. Goggia. Measurer
   PS1 Science Consortium. 1.8-m Ritchey-Chrétien + CCD.
(H21) Astronomical Research Observatory, Westfield  (N39.483057 W87.968270)
   US/Illinois. 0.76-m f/3.0 astrograph + CCD.

Orbital elements:  P10LfOw
   Perihelion 2018 Dec 6.058386 +/- 70 TT =  1:24:04 (JD 2458458.558386)
Epoch 2019 Jan 10.0 TT = JDT 2458493.5   Earth MOID: 0.3930   AutoNEOCP
M  13.88541143 +/- 28               (J2000 ecliptic)
n   0.39738895 +/- 0.215            Peri.   11.95367 +/- 60
a   1.83228147 +/- 0.666            Node    81.63641 +/- 13
e   0.2506664 +/- 0.197             Incl.   25.52561 +/- 9
P   2.48/905.90d           H 21.4   G  0.15   U 11.7  SR
q 1.37298992 +/- 0.278    Q 2.29157302 +/- 7.55
From 7 observations 2019 Jan. 9-10 (21.3 hr); mean residual 0".18
Residuals in arcseconds: 
190109 F51  .34-  .18+    190109 F51  .21+  .11-    190110 H21  .19+  .08+    
190109 F51  .07-  .18+    190110 H21  .02-  .07+    
190109 F51  .22+  .26-    190110 H21  .18-  .14-    

Ephemerides (geocentric):
Date (UTC) HH   RA              Dec         delta   r     elong  mag " sig PA
---- -- -- --  -------------   -----------  ------ ------ -----  --- ---- ---
2019 01 23 11  10 06 27.756   +65 42 53.20  .56349 1.4174 130.7 22.3 3100 100
2019 01 23 12  10 06 27.474   +65 43 59.05  .56366 1.4174 130.6 22.3 3118 100
2019 01 23 13  10 06 27.182   +65 45 04.77  .56383 1.4175 130.6 22.3 3136 100
2019 01 23 14  10 06 26.881   +65 46 10.38  .56400 1.4176 130.6 22.3 3153 100
2019 01 23 15  10 06 26.571   +65 47 15.86  .56418 1.4177 130.6 22.3 3171 100
2019 01 23 16  10 06 26.252   +65 48 21.23  .56435 1.4177 130.6 22.3 3189 100
2019 01 23 17  10 06 25.925   +65 49 26.47  .56452 1.4178 130.6 22.3 3207 100
2019 01 23 18  10 06 25.588   +65 50 31.60  .56469 1.4179 130.6 22.3 3225 100
2019 01 23 19  10 06 25.242   +65 51 36.60  .56486 1.4179 130.5 22.3 3243 100
2019 01 23 20  10 06 24.887   +65 52 41.48  .56503 1.4180 130.5 22.3 3261 100
2019 01 23 21  10 06 24.523   +65 53 46.24  .56520 1.4181 130.5 22.3 3279 100
2019 01 23 22  10 06 24.150   +65 54 50.89  .56537 1.4182 130.5 22.3 3297 100
2019 01 23 23  10 06 23.768   +65 55 55.41  .56555 1.4182 130.5 22.3 3316 100
2019 01 24 00  10 06 23.377   +65 56 59.81  .56572 1.4183 130.5 22.3 3334 100
2019 01 24 01  10 06 22.976   +65 58 04.09  .56589 1.4184 130.5 22.3 3352 100
2019 01 24 02  10 06 22.567   +65 59 08.25  .56606 1.4185 130.4 22.3 3370 100
2019 01 24 03  10 06 22.149   +66 00 12.28  .56624 1.4185 130.4 22.3 3389 100
2019 01 24 04  10 06 21.722   +66 01 16.20  .56641 1.4186 130.4 22.3 3407 100
2019 01 24 05  10 06 21.286   +66 02 20.00  .56658 1.4187 130.4 22.3 3425 100
2019 01 24 06  10 06 20.841   +66 03 23.67  .56675 1.4188 130.4 22.3 3444 100
2019 01 24 07  10 06 20.386   +66 04 27.23  .56693 1.4188 130.4 22.3 3462 100
2019 01 24 08  10 06 19.923   +66 05 30.66  .56710 1.4189 130.4 22.3 3481 100
2019 01 24 09  10 06 19.451   +66 06 33.98  .56728 1.4190 130.3 22.3 3500 100
2019 01 24 10  10 06 18.970   +66 07 37.17  .56745 1.4191 130.3 22.3 3518 100
2019 01 24 11  10 06 18.480   +66 08 40.24  .56762 1.4191 130.3 22.3 3537 100
2019 01 24 12  10 06 17.980   +66 09 43.19  .56780 1.4192 130.3 22.3 3555 100
2019 01 24 13  10 06 17.472   +66 10 46.02  .56797 1.4193 130.3 22.3 3574 100
2019 01 24 14  10 06 16.955   +66 11 48.73  .56815 1.4194 130.3 22.3 3593 100
2019 01 24 15  10 06 16.429   +66 12 51.32  .56832 1.4194 130.2 22.3 3612 100
2019 01 24 16  10 06 15.893   +66 13 53.79  .56850 1.4195 130.2 22.3 3631 100
2019 01 24 17  10 06 15.349   +66 14 56.13  .56867 1.4196 130.2 22.3 3650 100
2019 01 24 18  10 06 14.796   +66 15 58.36  .56885 1.4197 130.2 22.3 3668 100
2019 01 24 19  10 06 14.234   +66 17 00.46  .56902 1.4197 130.2 22.3 3687  99
2019 01 24 20  10 06 13.662   +66 18 02.45  .56920 1.4198 130.2 22.3 3706  99
2019 01 24 21  10 06 13.082   +66 19 04.31  .56937 1.4199 130.2 22.3 3725  99
2019 01 24 22  10 06 12.493   +66 20 06.05  .56955 1.4200 130.1 22.3 3745  99
2019 01 24 23  10 06 11.895   +66 21 07.67  .56973 1.4200 130.1 22.3 3764  99
2019 01 25 00  10 06 11.288   +66 22 09.17  .56990 1.4201 130.1 22.3 3783  99
2019 01 25 01  10 06 10.672   +66 23 10.55  .57008 1.4202 130.1 22.3 3802  99
2019 01 25 02  10 06 10.047   +66 24 11.81  .57026 1.4203 130.1 22.3 3821  99
2019 01 25 03  10 06 09.413   +66 25 12.94  .57043 1.4203 130.1 22.3 3841  99
2019 01 25 04  10 06 08.770   +66 26 13.96  .57061 1.4204 130.1 22.3 3860  99
2019 01 25 05  10 06 08.118   +66 27 14.85  .57079 1.4205 130.0 22.3 3879  99
2019 01 25 06  10 06 07.457   +66 28 15.63  .57097 1.4206 130.0 22.3 3899  99
2019 01 25 07  10 06 06.787   +66 29 16.28  .57114 1.4206 130.0 22.3 3918  99
2019 01 25 08  10 06 06.109   +66 30 16.81  .57132 1.4207 130.0 22.3 3937  99
2019 01 25 09  10 06 05.421   +66 31 17.22  .57150 1.4208 130.0 22.3 3957  99
2019 01 25 10  10 06 04.725   +66 32 17.51  .57168 1.4209 130.0 22.3 3976  99